Location: Pedholt
(56.0260°N, 10.2097°E)
Time: 06:30:10
(UTC+00:00)

Meteor 1-4 Rocket - Pass Details

Date: 14 July 2020
Orbit: 448 x 503 km, 81.2° (Epoch: 14 August)

Event Time Altitude Azimuth Distance (km) Brightness Sun altitude
Rises 00:13:06 0° 342° (NNW) 2,602 7.4 -11.7°
Reaches altitude 10° 00:15:17 10° 337° (NNW) 1,707 6.2 -11.6°
Maximum altitude 00:18:55 51° 262° (W) 627 2.9 -11.5°
Enters shadow 00:21:25 18° 191° (S) 1,253 4.0 -11.4°
